Showing default

SKYKRAFT-1C, 55061

Orbit data source: Space-Track

SKYKRAFT-1C, 55061 is a payload satellite owned by SkyKraft (AU) in SSO that was launched on Tue, 03 Jan 2023 UTC via an FALCON 9 launch vehicle from the Air Force Eastern Test Range (AFETR). Payload-class satellites include a variety of spacecraft equipped with specific instruments for various scientific and technological missions. These include communications satellites like Starlink; space stations such as the ISS; scientific satellites like the Hubble; Earth observation satellites from companies like Planet Labs, Umbra, and HawkEye 360; GPS; miniature CubeSats for education and research; and military/defense satellites.

Loading next visibility...
Identifier
55061, 2023-001BE
Orbit
SSO
Country
Flag of AUAU / AUS
Related business
Manufacturer
SkyKraft
Mission
Operational Commercial Communications
Bus & Motor
SKYKRAFT, Unknown motor
Mass
~50 kg wet, ~50 kg dry
Launch date (UTC)
2023-01-03 (4 years ago)
Launch vehicle
FALCON 9
Launch site
Air Force Eastern Test Range (AFETR)
Object type
Payload
Rocket body
Debris
Shape & HBR
Box, 0.3 m
Radar Cross Section
0.065 m², Large (>1 m²)

Expand to show TLE details & history
Last TLE update: 18 hours ago

TLE from 18 hours ago
0 SKYKRAFT-1C
1 55061U 23001BE  26235.97766616  .00002531  00000-0  10313-3 0  9991
2 55061  97.3139 288.1247 0008614 266.6829  93.3424 15.25344944201819
Epoch: 2026-08-23T23:27Z
TLE epoch observation values (Epoch: 2026-08-23T23:27:50.356Z)
Latitude
Longitude
-36.10109°
Altitude
493.2 km
Speed
7.618 km/s
True Right ascension
19h 12m 29s
True Declination
0° 00' 00"
Sunlit
Object was in full shadow at epoch
Visualization orbit readout
Latitude
Unknown
Longitude
Unknown
Altitude
Unknown
Speed
Unknown
Apparent Right ascension
Unknown
Apparent Declination
Unknown
Sunlit
N/A
Visualization observer readout
Local Sidereal Time
09:08:26
Azimuth
Unknown
Elevation
Unknown
Doppler factor
Unknown
Orbital elements
Apogee altitude
492.618 km
Perigee altitude
480.791 km
Semi-major axis
6,864.842 km
Eccentricity
0.00086
Inclination
97.3139°
RAAN
288.1247°
Arg. of periapsis
266.6829°
True anomaly
93.44094°
Mean anomaly
93.3424°
Eccentric anomaly
93.39167°
Mean motion
3.8159 °/min
Orbital period
94.34 mins
BSTAR
0.00010313
Loading maneuver chart data...
Computing Atmospheric mass density...

Documentation

Showing up to 5 results
|